Vancouver, WA

12:33 AM PST on December 11, 2016 (GMT -0800)
Portland International

Weather History for KPDX - November, 2013

Change the Weather History Date:

Thursday, November 7, 2013

  Actual Average Record
Temperature  
Mean Temperature 53 °F 49 °F  
Max Temperature 57 °F 55 °F 66 °F (1941)
Min Temperature 49 °F 42 °F 29 °F (1959)
Degree Days  
Heating Degree Days 12 16  
Month to date heating degree days 104 108  
Since 1 July heating degree days 543 526  
Cooling Degree Days 0 0  
Month to date cooling degree days 0 0  
Year to date cooling degree days 539 424  
Growing Degree Days 4 (Base 50)    
Moisture  
Dew Point 47 °F    
Average Humidity 85    
Maximum Humidity 93    
Minimum Humidity 77    
Precipitation  
Precipitation 0.30 in 0.18 in 1.07 in (2009)
Month to date precipitation 1.75 1.14  
Year to date precipitation 23.80 26.05  
Snow  
Snow 0.00 in - - ()
Snow Depth 0.00 in    
Sea Level Pressure  
Sea Level Pressure 29.99 in    
Wind  
Wind Speed 12 mph (South)    
Max Wind Speed 31 mph    
Max Gust Speed 39 mph    
Visibility 9 miles    
Events Rain    
T = Trace of Precipitation, MM = Missing Value Source: NWS Daily Summary

Daily Weather History Graph

Daily Weather History Graph

Search for Another Location

Airport or City:

Trip Planner

Search our weather history database for the weather conditions in past years. The results will help you decide how hot, cold, wet, or windy it might be!

Date:

Astronomy

Nov. 07, 2013 Rise Set
Actual Time 6:59 AM PST 4:48 PM PST
Civil Twilight 6:27 AM PST 5:20 PM PST
Nautical Twilight 5:52 AM PST 5:55 PM PST
Astronomical Twilight 5:17 AM PST 6:30 PM PST
Moon 11:14 AM PST (11/7) 9:04 PM PST (11/7)
Length of Visible Light 10h 52m
Length of Day
9h 49m
Waxing Crescent, 24% of the Moon is Illuminated
Nov 7
Waxing Crescent
Nov 9
First Quarter
Nov 17
Full
Nov 25
Last Quarter
Dec 2
New

Hourly Weather History & Observations

Time (PST) Temp. Dew Point Humidity Pressure Visibility Wind Dir Wind Speed Gust Speed Precip Events Conditions
12:53 AM 48.9 °F 46.9 °F 93% 30.07 in 10.0 mi ESE 13.8 mph - 0.03 in   Overcast
1:53 AM 50.0 °F 46.0 °F 86% 30.05 in 10.0 mi ESE 12.7 mph - 0.01 in   Overcast
2:34 AM 48.2 °F 46.4 °F 93% 30.03 in 5.0 mi ESE 11.5 mph - 0.00 in Rain Light Rain
2:53 AM 48.9 °F 46.9 °F 93% 30.01 in 10.0 mi ESE 15.0 mph - 0.00 in Rain Light Rain
3:53 AM 50.0 °F 48.9 °F 96% 30.00 in 10.0 mi ESE 12.7 mph - 0.01 in   Overcast
4:17 AM 50.0 °F 48.2 °F 94% 29.98 in 10.0 mi ESE 15.0 mph - 0.00 in Rain Light Rain
4:53 AM 50.0 °F 46.9 °F 89% 29.97 in 10.0 mi ESE 15.0 mph - 0.00 in   Overcast
5:53 AM 50.0 °F 48.0 °F 93% 29.92 in 9.0 mi ESE 13.8 mph - 0.00 in   Light Drizzle
6:26 AM 55.4 °F 51.8 °F 88% 29.92 in 9.0 mi SSE 12.7 mph - 0.00 in   Light Drizzle
6:53 AM 55.9 °F 54.0 °F 93% 29.91 in 10.0 mi SSE 11.5 mph - 0.00 in Rain Light Rain
7:45 AM 55.4 °F 53.6 °F 94% 29.88 in 10.0 mi South 12.7 mph - 0.01 in   Overcast
7:53 AM 57.0 °F 53.1 °F 87% 29.88 in 10.0 mi SSE 10.4 mph - 0.01 in   Overcast
8:34 AM 51.8 °F 46.4 °F 82% 29.93 in 2.0 mi SW 23.0 mph 39.1 mph 0.09 in Rain Heavy Rain
8:44 AM 50.0 °F 46.4 °F 87% 29.92 in 4.0 mi WSW 11.5 mph 25.3 mph 0.14 in Rain Rain
8:53 AM 50.0 °F 46.0 °F 86% 29.93 in 7.0 mi WSW 15.0 mph - 0.15 in Rain Light Rain
9:53 AM 50.0 °F 46.9 °F 89% 29.95 in 6.0 mi SSE 4.6 mph - 0.05 in Rain Light Rain
10:53 AM 52.0 °F 46.9 °F 83% 29.95 in 10.0 mi South 11.5 mph - 0.01 in   Scattered Clouds
11:53 AM 51.1 °F 48.0 °F 89% 29.96 in 10.0 mi South 11.5 mph - N/A   Overcast
12:53 PM 52.0 °F 46.9 °F 83% 29.95 in 10.0 mi South 12.7 mph 24.2 mph N/A   Mostly Cloudy
1:53 PM 55.0 °F 48.9 °F 80% 29.96 in 10.0 mi SSW 15.0 mph - 0.00 in   Mostly Cloudy
2:53 PM 53.1 °F 45.0 °F 74% 29.97 in 10.0 mi SW 16.1 mph 29.9 mph 0.03 in Rain Light Rain
3:53 PM 54.0 °F 42.1 °F 64% 29.99 in 10.0 mi SW 19.6 mph 29.9 mph 0.00 in   Mostly Cloudy
4:53 PM 52.0 °F 43.0 °F 71% 30.01 in 10.0 mi SSW 18.4 mph - 0.00 in Rain Light Rain
5:53 PM 51.1 °F 43.0 °F 74% 30.03 in 10.0 mi SSW 15.0 mph 26.5 mph 0.00 in Rain Light Rain
6:53 PM 51.1 °F 42.1 °F 71% 30.06 in 10.0 mi SSW 20.7 mph 25.3 mph 0.00 in   Overcast
7:53 PM 50.0 °F 44.1 °F 80% 30.07 in 10.0 mi SW 13.8 mph - 0.00 in   Overcast
8:53 PM 50.0 °F 44.1 °F 80% 30.09 in 10.0 mi SW 13.8 mph - N/A   Overcast
9:53 PM 50.0 °F 45.0 °F 83% 30.10 in 10.0 mi SW 9.2 mph - N/A   Overcast
10:53 PM 50.0 °F 45.0 °F 83% 30.11 in 10.0 mi WSW 3.5 mph - N/A   Overcast
11:53 PM 48.9 °F 45.0 °F 86% 30.13 in 10.0 mi SW 6.9 mph - N/A   Overcast